TimeCDT,TemperatureF,Dew PointF,Humidity,Sea Level PressureIn,VisibilityMPH,Wind Direction,Wind SpeedMPH,Gust SpeedMPH,PrecipitationIn,Events,Conditions,WindDirDegrees,DateUTC
12:15 AM,54.0,51.8,92,29.83,0.2,NE,15.0,21.9,N/A,Fog,Fog,40,2013-10-04 05:15:00
12:35 AM,54.0,51.8,92,29.82,0.2,NE,17.3,21.9,N/A,Fog,Fog,40,2013-10-04 05:35:00
12:55 AM,54.0,51.8,92,29.83,0.2,NE,13.8,18.4,N/A,Fog,Fog,40,2013-10-04 05:55:00
1:15 AM,54.0,51.8,92,29.83,0.2,NE,16.1,21.9,N/A,Fog,Fog,40,2013-10-04 06:15:00
1:35 AM,54.0,51.8,92,29.82,0.2,NE,11.5,-,N/A,Fog,Fog,50,2013-10-04 06:35:00
1:55 AM,54.1,51.8,92,29.81,0.5,NE,16.1,19.6,N/A,Fog,Fog,50,2013-10-04 06:55:00
2:15 AM,54.1,52.0,92,29.81,0.5,NE,17.3,21.9,N/A,Fog,Fog,40,2013-10-04 07:15:00
2:35 AM,54.5,52.2,92,29.82,0.5,NE,12.7,20.7,N/A,Fog,Fog,50,2013-10-04 07:35:00
2:55 AM,54.7,52.5,92,29.82,0.5,ENE,10.4,19.6,N/A,Fog-Thunderstorm,Fog,60,2013-10-04 07:55:00
3:15 AM,54.9,52.7,92,29.80,0.5,NE,17.3,-,N/A,Rain,Rain,50,2013-10-04 08:15:00
3:35 AM,54.9,52.7,92,29.79,1.0,NE,13.8,-,N/A,,Light Drizzle,40,2013-10-04 08:35:00
3:55 AM,54.9,52.7,92,29.79,2.0,NE,12.7,-,0.01,,Overcast,50,2013-10-04 08:55:00
4:15 AM,54.9,52.7,92,29.81,2.0,NE,10.4,-,N/A,,Overcast,50,2013-10-04 09:15:00
4:35 AM,55.0,52.9,92,29.80,2.5,NE,11.5,-,N/A,,Overcast,50,2013-10-04 09:35:00
4:55 AM,55.4,53.1,92,29.79,2.5,NE,16.1,20.7,N/A,,Overcast,50,2013-10-04 09:55:00
5:15 AM,55.4,53.1,92,29.78,3.0,ENE,11.5,-,N/A,,Overcast,60,2013-10-04 10:15:00
5:35 AM,55.4,53.1,92,29.78,2.0,ENE,15.0,19.6,N/A,,Overcast,60,2013-10-04 10:35:00
5:55 AM,55.6,53.2,92,29.78,0.8,NE,13.8,18.4,N/A,,Overcast,50,2013-10-04 10:55:00
6:15 AM,55.9,53.6,92,29.78,0.5,ENE,13.8,-,N/A,Fog,Fog,70,2013-10-04 11:15:00
6:35 AM,56.3,53.8,91,29.78,0.5,ENE,15.0,19.6,N/A,Fog,Fog,60,2013-10-04 11:35:00
6:55 AM,56.5,54.1,92,29.78,0.5,ENE,12.7,-,N/A,Fog,Fog,60,2013-10-04 11:55:00
7:35 AM,56.7,54.5,92,29.77,0.5,ENE,12.7,-,N/A,Fog,Fog,60,2013-10-04 12:35:00
7:55 AM,56.8,54.5,92,29.76,0.5,ENE,13.8,-,N/A,Fog,Fog,70,2013-10-04 12:55:00
8:15 AM,57.4,55.0,92,29.75,0.2,ENE,16.1,19.6,N/A,Fog,Fog,70,2013-10-04 13:15:00
8:35 AM,57.6,55.4,92,29.75,0.2,ENE,16.1,21.9,N/A,Fog,Fog,70,2013-10-04 13:35:00
8:55 AM,57.9,55.6,92,29.75,0.2,ENE,15.0,-,N/A,Fog,Fog,70,2013-10-04 13:55:00
9:15 AM,58.1,55.6,91,29.74,0.5,ENE,12.7,20.7,N/A,Fog,Fog,70,2013-10-04 14:15:00
9:35 AM,58.3,56.1,93,29.74,1.2,ENE,15.0,19.6,N/A,,Overcast,70,2013-10-04 14:35:00
9:55 AM,58.5,56.3,93,29.75,2.0,ENE,11.5,-,N/A,,Overcast,70,2013-10-04 14:55:00
10:15 AM,59.0,56.5,91,29.74,2.5,ENE,17.3,20.7,N/A,,Overcast,70,2013-10-04 15:15:00
10:35 AM,59.0,56.5,91,29.74,2.5,ENE,15.0,21.9,N/A,,Overcast,60,2013-10-04 15:35:00
10:55 AM,59.0,56.5,91,29.74,4.0,ENE,15.0,23.0,N/A,,Overcast,70,2013-10-04 15:55:00
11:15 AM,59.0,56.5,91,29.73,4.0,ENE,17.3,-,N/A,,Overcast,70,2013-10-04 16:15:00
11:35 AM,59.0,56.3,91,29.72,3.0,ENE,15.0,20.7,N/A,,Overcast,70,2013-10-04 16:35:00
11:55 AM,59.2,56.5,91,29.71,4.0,ENE,13.8,20.7,N/A,,Overcast,70,2013-10-04 16:55:00
12:15 PM,59.4,56.5,90,29.71,4.0,ENE,16.1,24.2,N/A,,Overcast,70,2013-10-04 17:15:00
12:35 PM,59.9,56.7,89,29.70,5.0,ENE,17.3,20.7,N/A,,Overcast,70,2013-10-04 17:35:00
12:55 PM,60.3,57.2,90,29.71,5.0,ENE,15.0,24.2,N/A,,Overcast,70,2013-10-04 17:55:00
1:15 PM,60.4,57.2,89,29.71,5.0,East,12.7,19.6,N/A,,Overcast,80,2013-10-04 18:15:00
1:35 PM,60.8,57.6,89,29.69,4.0,East,15.0,-,N/A,,Overcast,80,2013-10-04 18:35:00
1:55 PM,60.8,57.7,90,29.67,4.0,East,17.3,-,N/A,,Overcast,80,2013-10-04 18:55:00
2:15 PM,61.2,58.1,90,29.65,3.0,East,16.1,23.0,N/A,,Overcast,80,2013-10-04 19:15:00
2:35 PM,61.3,58.5,90,29.64,4.0,East,17.3,20.7,N/A,,Overcast,80,2013-10-04 19:35:00
2:55 PM,62.2,59.0,89,29.63,5.0,East,16.1,-,N/A,,Overcast,80,2013-10-04 19:55:00
3:15 PM,63.1,59.9,89,29.62,7.0,ENE,17.3,21.9,N/A,,Overcast,70,2013-10-04 20:15:00
3:35 PM,63.1,59.9,89,29.61,7.0,East,17.3,23.0,N/A,,Overcast,80,2013-10-04 20:35:00
3:55 PM,64.0,60.3,87,29.59,7.0,ENE,16.1,21.9,N/A,,Overcast,70,2013-10-04 20:55:00
4:15 PM,64.0,60.6,89,29.58,7.0,East,13.8,-,N/A,Thunderstorm,Thunderstorm,80,2013-10-04 21:15:00
4:35 PM,64.8,61.5,89,29.58,2.0,East,11.5,-,0.12,Rain,Heavy Rain,90,2013-10-04 21:35:00
4:55 PM,66.4,63.1,89,29.59,7.0,East,4.6,-,0.12,Thunderstorm,Mostly Cloudy,90,2013-10-04 21:55:00
5:15 PM,66.9,58.3,74,29.62,10.0,SW,25.3,32.2,N/A,,Scattered Clouds,230,2013-10-04 22:15:00
5:35 PM,64.6,54.1,69,29.63,10.0,SW,25.3,31.1,N/A,,Scattered Clouds,220,2013-10-04 22:35:00
5:55 PM,61.0,50.5,68,29.64,10.0,SW,20.7,28.8,0.01,,Clear,230,2013-10-04 22:55:00
6:15 PM,58.3,48.0,69,29.65,10.0,SW,24.2,34.5,N/A,,Clear,230,2013-10-04 23:15:00
6:35 PM,55.6,46.6,72,29.67,10.0,SW,21.9,31.1,N/A,,Clear,230,2013-10-04 23:35:00
6:55 PM,52.3,43.9,73,29.69,10.0,SW,21.9,34.5,N/A,,Clear,230,2013-10-04 23:55:00
7:15 PM,50.2,43.2,77,29.71,10.0,WSW,18.4,26.5,N/A,,Mostly Cloudy,240,2013-10-05 00:15:00
7:35 PM,49.1,41.5,75,29.72,10.0,SW,27.6,36.8,N/A,,Overcast,230,2013-10-05 00:35:00
7:55 PM,47.5,40.1,76,29.73,10.0,WSW,21.9,36.8,N/A,,Overcast,240,2013-10-05 00:55:00
8:15 PM,45.9,38.3,75,29.75,10.0,WSW,25.3,38.0,N/A,,Mostly Cloudy,240,2013-10-05 01:15:00
8:35 PM,45.5,38.5,76,29.75,10.0,SW,25.3,33.4,N/A,,Overcast,230,2013-10-05 01:35:00
8:55 PM,42.8,36.0,77,29.77,10.0,WSW,24.2,29.9,N/A,,Overcast,240,2013-10-05 01:55:00
9:15 PM,41.4,35.1,78,29.77,10.0,WSW,24.2,35.7,N/A,,Mostly Cloudy,240,2013-10-05 02:15:00
9:35 PM,41.4,34.2,76,29.78,10.0,WSW,21.9,32.2,N/A,,Mostly Cloudy,240,2013-10-05 02:35:00
9:55 PM,41.0,33.1,73,29.78,10.0,WSW,23.0,31.1,N/A,,Overcast,240,2013-10-05 02:55:00
10:15 PM,40.1,32.2,73,29.79,10.0,SW,20.7,34.5,N/A,,Overcast,230,2013-10-05 03:15:00
10:35 PM,40.1,32.0,73,29.78,10.0,WSW,20.7,25.3,N/A,,Overcast,240,2013-10-05 03:35:00
10:55 PM,39.7,32.0,74,29.78,10.0,WSW,24.2,32.2,N/A,,Overcast,240,2013-10-05 03:55:00
11:15 PM,39.4,31.8,74,29.78,10.0,WSW,21.9,31.1,N/A,,Overcast,240,2013-10-05 04:15:00
11:35 PM,39.2,31.5,74,29.79,10.0,WSW,23.0,32.2,N/A,,Overcast,250,2013-10-05 04:35:00
11:55 PM,39.2,31.1,73,29.78,10.0,WSW,28.8,33.4,N/A,,Overcast,250,2013-10-05 04:55:00